Location: C.E.K. Mees Observatory
(42.7003°N, 77.4088°W)
Time: 16:56:05
(UTC-04:00)

OTV 5 (USA 277) - Pass Details

Date: 08 October 2017
Orbit: 404 x 417 km, 43.0° (Epoch: 07 September)

Event Time Altitude Azimuth Distance (km) Brightness Sun altitude
Rises 19:48:14 0° 209° (SSW) 2,340 ? -13.6°
Reaches altitude 10° 19:50:55 10° 186° (S) 1,481 ? -14.1°
Enters shadow 19:52:56 16° 149° (SSE) 1,184 ? -14.5°
